Dewpoint
57 57 57 57 57 56 56 56 57 57 58 58 58 58 59 60 59 57 29 36 64 72 70 66 66 59 59 59 63 62 53 50 48 46 52 56 56 57 57 58 57 59 59 60 63
57 56 56 56 56 56 56 56 56 57 57 57 57 58 59 60 55 40 39 54 69 71 64 63 62 60 63 62 62 58 53 52 50 48 47 55 55 56 57 56 57 58 59 61 64
57 56 55 55 55 55 56 56 57 57 56 57 57 58 59 59 46 32 48 63 68 72 65 62 61 58 58 60 59 55 52 54 52 51 51 49 54 54 56 57 57 58 58 61 63
55 55 55 55 55 55 56 56 56 56 56 56 57 58 59 56 39 45 63 72 69 70 62 58 58 57 54 55 60 55 55 54 53 51 51 48 51 56 57 57 59 58 58 59 62
55 55 55 54 55 55 55 55 55 55 56 56 57 59 55 42 17 62 72 74 71 67 63 58 60 56 53 54 57 57 55 54 54 53 51 50 50 55 57 58 59 59 58 58 57
55 55 55 54 55 55 55 55 55 55 56 57 57 58 47 8 48 60 63 70 65 65 62 62 61 58 55 50 50 55 55 54 53 54 51 49 53 55 58 59 58 58 57 57 57
55 54 54 55 54 55 55 55 55 56 56 57 58 57 45 11 52 55 54 52 60 59 59 62 62 59 47 45 52 50 53 52 50 51 48 48 50 54 56 58 58 57 58 57 57
55 55 54 54 54 54 54 54 55 56 57 58 60 56 18 38 48 49 53 48 54 58 55 55 54 43 44 47 48 49 54 52 52 50 47 50 46 51 52 56 56 57 57 57 56
54 55 55 54 54 54 54 54 55 56 58 60 54 53 17 44 39 42 50 47 49 52 53 54 51 41 45 40 41 44 46 48 51 50 44 48 48 51 52 51 51 54 57 58 57
54 54 54 54 53 53 54 54 54 55 57 58 52 41 36 34 41 47 45 46 46 47 47 46 43 41 43 38 31 38 43 46 50 48 48 48 50 51 51 51 51 51 50 51 50
54 54 53 53 53 54 52 47 44 41 47 19 28 34 30 30 33 35 47 46 47 44 39 38 35 33 36 39 38 37 40 43 49 49 48 44 45 47 52 54 51 51 50 49 49
55 54 53 53 54 54 51 38 43 37 30 38 36 37 36 33 26 31 43 45 43 40 38 35 32 31 35 41 41 41 39 46 49 51 46 35 38 48 50 51 54 49 48 48 48
54 54 53 53 54 50 44 38 40 39 29 29 38 33 26 28 26 32 39 40 39 39 36 33 30 33 37 33 36 37 38 48 48 48 48 48 44 53 57 56 56 53 49 47 48
54 54 52 53 50 46 43 36 37 37 27 28 30 27 23 21 20 34 40 39 35 35 33 28 27 27 33 35 37 31 35 48 47 44 40 50 41 49 56 52 51 54 52 53 47
55 54 52 52 47 39 41 41 34 33 24 28 26 25 21 18 18 20 37 33 29 24 21 20 19 28 33 33 35 27 29 45 45 40 39 47 42 43 53 56 56 56 57 57 50
54 53 53 51 50 40 41 40 34 29 24 23 22 16 19 18 17 25 33 28 26 25 21 20 20 23 32 31 23 20 17 18 38 38 32 39 35 39 47 51 53 55 56 57 56
54 52 51 50 42 44 41 37 32 26 28 12 13 12 15 14 15 22 27 26 17 16 16 19 18 20 20 18 18 20 18 16 19 29 31 41 38 43 48 53 54 54 56 57 58
53 52 51 48 43 43 40 35 29 31 28 21 16 12 11 13 14 19 17 15 16 16 15 14 13 15 19 16 16 18 18 16 14 28 36 43 40 43 49 54 57 55 54 55 54
51 49 47 46 48 44 39 35 33 31 30 15 13 13 11 12 12 16 16 15 15 15 11 14 17 19 19 17 17 15 15 22 38 39 37 42 45 49 50 51 54 56 57 55 54
49 48 45 49 47 40 38 36 33 31 34 32 31 23 10 12 9 13 13 17 13 15 15 21 16 19 12 12 11 15 13 8 28 33 28 37 42 42 49 48 46 44 49 55 55
51 46 45 46 41 40 37 37 28 34 36 34 34 34 31 27 13 18 16 25 22 23 26 21 19 16 14 17 8 5 7 7 23 32 26 29 44 54 53 51 42 47 48 57 52
49 39 45 42 38 41 38 32 27 31 35 33 35 36 33 31 31 29 26 25 25 28 27 27 19 14 13 20 19 8 14 6 8 32 37 36 43 54 55 56 54 54 56 58 54
45 45 42 40 33 33 33 26 27 27 32 34 34 33 31 33 31 31 29 26 28 25 21 23 22 15 21 20 23 23 27 23 32 39 38 36 43 54 53 56 58 58 57 55 60
49 43 43 39 39 34 32 32 31 34 32 32 30 31 31 36 36 35 33 29 29 28 31 28 21 21 24 22 26 23 26 24 22 32 44 39 39 42 49 54 56 57 62 64 65
47 44 45 41 41 39 34 33 32 32 33 31 29 35 36 35 35 34 34 34 33 34 32 27 25 27 28 27 26 26 26 27 28 43 33 37 35 40 46 55 63 65 65 62 64
46 45 47 46 46 35 36 33 31 32 30 26 25 30 34 31 31 28 30 32 33 31 28 29 25 27 24 28 28 29 30 42 41 45 41 40 40 46 49 58 62 62 62 60 62
52 51 49 47 44 34 30 29 30 30 32 28 23 25 30 30 28 27 28 30 30 27 28 24 24 24 21 27 27 26 32 37 47 44 42 43 49 50 56 59 61 61 60 58 57
Wind_Speed
17 17 16 16 17 17 16 17 16 17 17 18 17 17 16 18 17 3 6 8 12 23 23 21 13 14 10 7 2 3 4 1 1 4 10 28 30 7 7 26 13 7 16 21 26
17 17 18 17 17 17 17 17 17 16 17 18 17 16 16 16 2 8 8 16 20 27 17 23 23 9 8 5 8 8 0 4 3 3 10 22 22 19 17 18 17 25 21 22 27
17 17 17 17 17 17 18 17 18 16 16 16 17 16 16 13 2 5 15 24 29 26 12 15 24 5 7 5 4 4 6 7 10 10 3 16 24 16 27 19 32 31 30 29 30
17 17 18 18 18 18 18 19 17 17 15 16 16 16 15 1 6 3 22 23 28 17 16 12 13 6 6 9 9 5 14 19 7 7 5 10 13 24 20 17 27 28 30 25 32
18 18 18 19 19 19 19 19 17 16 16 14 13 13 2 0 7 6 15 19 19 12 15 12 9 7 9 9 13 14 19 9 15 4 7 7 11 20 13 28 27 27 28 26 29
18 18 18 19 21 19 19 20 18 16 16 12 9 6 2 5 3 20 20 19 15 16 15 19 14 22 6 10 8 2 15 24 12 16 4 17 23 17 22 24 27 29 28 25 27
19 19 19 19 20 21 19 20 19 17 15 10 4 2 2 12 8 19 19 16 14 21 16 25 27 14 11 4 13 5 9 22 5 7 8 11 15 22 29 28 27 26 28 27 27
19 19 18 19 19 21 21 21 20 18 13 8 4 3 7 6 15 17 14 8 12 17 19 20 18 15 2 7 5 6 8 12 9 4 8 6 11 22 27 30 25 23 22 23 23
20 18 17 18 18 19 21 23 22 17 7 3 4 2 6 5 17 19 16 10 18 17 18 22 16 6 1 3 5 2 9 8 13 12 6 6 14 6 19 22 23 25 23 23 22
20 19 17 17 16 18 23 25 9 6 4 6 6 4 8 12 14 13 18 16 10 9 11 11 7 8 1 2 4 8 10 2 8 4 13 20 7 3 2 10 22 21 20 19 16
21 19 16 14 13 14 13 3 1 1 3 9 6 5 5 4 8 11 17 13 8 4 12 11 8 17 20 11 6 6 7 19 7 16 4 20 13 7 7 7 13 19 21 22 16
19 17 14 12 11 7 4 2 6 3 9 17 20 16 16 6 6 12 14 12 6 10 8 9 20 25 18 6 9 11 9 4 12 6 4 18 4 10 9 11 11 20 22 22 19
19 15 12 9 7 3 4 10 10 13 3 8 9 9 12 12 15 18 18 13 5 11 16 12 19 15 11 13 10 4 16 15 13 5 5 6 5 21 7 4 15 16 17 21 25
18 14 9 7 2 1 6 11 14 5 3 5 7 6 6 6 2 12 16 14 6 14 16 13 24 20 22 14 3 10 13 21 24 17 6 4 4 8 11 34 36 33 14 13 22
17 11 6 2 4 3 5 14 9 4 1 4 10 3 7 9 3 12 15 8 15 12 3 10 16 17 20 26 1 10 19 30 28 9 8 8 3 7 23 23 34 30 17 18 19
17 10 3 2 2 12 19 17 4 2 2 5 10 8 12 9 12 0 18 3 4 13 13 22 20 16 25 21 11 7 5 6 14 5 6 8 4 6 7 4 10 11 16 13 2
19 10 3 3 4 10 16 5 3 1 4 6 10 8 14 11 10 9 18 19 9 2 11 11 14 11 7 5 6 7 10 7 4 3 6 4 4 4 5 3 3 10 6 12 5
18 6 11 10 11 11 7 2 3 6 7 3 6 11 11 9 8 14 15 14 14 9 5 6 19 11 7 7 7 4 4 3 5 4 4 5 6 6 11 2 3 12 17 14 19
4 2 4 10 14 6 3 2 3 4 5 4 5 5 7 9 4 10 15 17 9 14 7 4 9 10 16 5 8 2 4 7 9 4 0 5 1 7 19 18 17 2 3 5 10
3 2 5 4 16 7 3 5 4 2 6 16 8 3 8 14 10 12 11 4 10 10 18 5 5 5 10 4 2 3 4 1 5 9 5 5 5 5 17 30 35 22 5 3 4
2 4 4 16 6 3 2 5 6 7 9 7 3 2 3 5 12 5 5 7 5 2 10 6 3 11 5 5 10 3 7 7 6 5 5 6 1 6 9 22 13 18 21 14 16
4 4 9 11 2 3 5 5 6 8 7 9 5 1 4 13 7 6 5 3 5 6 4 3 3 5 13 5 5 5 9 3 5 5 5 7 3 12 12 28 21 22 20 15 18
6 4 5 3 8 13 10 6 10 14 7 2 2 4 2 14 3 6 2 2 10 7 5 5 4 8 14 9 4 8 7 5 9 6 3 7 9 15 11 15 18 18 18 17 19
5 9 7 3 2 7 12 14 14 20 22 10 12 16 11 16 15 13 14 6 6 7 3 3 4 4 6 11 3 5 10 14 3 6 11 6 19 12 17 16 20 14 9 4 14
9 4 4 7 16 24 11 8 17 9 10 18 13 21 10 10 8 11 15 15 8 14 6 4 10 6 6 10 7 3 10 14 10 20 12 15 14 10 4 5 12 9 12 8 8
6 7 8 9 15 15 10 9 14 8 8 10 10 11 14 8 4 7 9 7 3 11 7 7 11 10 10 20 16 14 18 19 13 12 16 20 8 7 4 3 10 16 13 10 7
7 5 2 9 16 8 11 11 11 8 3 7 5 6 9 8 8 11 10 10 10 5 5 4 7 10 4 16 6 12 10 10 7 18 31 20 12 14 11 12 8 10 16 14 10
Wind_Direction
337 336 336 336 334 334 333 331 335 334 336 334 336 336 330 329 319 138 227 193 170 159 144 166 145 73 37 76 69 130 45 330 297 56 124 122 125 128 126 136 152 191 149 168 161
331 331 331 330 329 328 327 326 329 332 333 332 332 332 327 332 318 221 249 174 160 165 161 157 136 92 56 2 352 37 38 239 228 266 154 141 134 125 127 137 117 115 147 152 160
328 327 325 324 323 321 321 324 324 330 330 330 328 328 321 325 311 234 192 159 164 168 176 157 136 111 125 169 188 186 231 263 269 233 240 135 138 143 140 146 148 154 152 152 160
327 325 321 319 319 319 318 320 324 325 329 328 327 325 320 297 153 255 173 156 167 177 152 140 150 133 162 183 194 254 245 247 252 208 173 165 135 146 152 165 158 151 157 161 160
324 322 319 317 315 316 316 316 319 321 323 324 326 326 11 22 244 176 146 145 165 179 176 163 198 170 216 195 169 220 270 236 250 253 126 202 152 152 148 148 153 155 165 171 169
323 320 317 314 312 312 312 312 314 316 315 317 320 321 97 231 161 162 150 150 185 172 193 205 215 206 251 246 189 116 271 270 231 246 225 124 123 120 152 153 159 162 175 182 181
322 318 315 312 311 312 311 309 308 308 306 305 300 236 154 232 163 163 164 177 183 184 190 213 228 232 191 141 160 145 301 256 224 123 116 118 122 145 159 159 168 175 182 189 193
322 317 315 313 311 310 309 305 302 300 297 284 205 180 245 231 145 156 180 205 223 214 229 252 250 268 125 120 152 111 95 339 358 44 36 114 136 144 153 164 173 181 192 199 199
323 317 314 313 312 311 307 299 297 289 268 205 135 176 251 84 167 195 177 192 212 237 246 260 273 254 67 101 92 222 136 295 290 353 89 73 137 168 162 164 169 180 199 211 212
325 320 317 313 315 315 307 295 282 302 182 190 258 305 257 202 182 190 203 202 207 248 262 245 257 257 191 153 299 140 119 266 275 245 80 96 92 179 327 194 182 191 197 207 191
325 320 317 314 317 322 341 35 12 94 203 210 212 245 321 262 160 183 192 216 235 276 272 282 276 262 265 199 211 224 155 202 222 233 299 115 129 217 250 295 245 202 203 202 190
325 322 319 316 312 327 314 204 224 86 297 241 240 256 272 253 229 213 165 190 220 246 286 304 281 280 281 224 192 182 229 151 139 223 218 117 146 165 215 262 283 223 207 204 184
330 325 319 311 314 301 220 240 260 19 308 288 209 221 248 153 197 201 172 195 205 230 252 249 267 289 270 292 333 251 197 164 148 184 41 53 352 67 33 55 318 214 207 197 182
332 326 319 312 328 321 264 267 268 157 358 271 202 258 180 116 234 188 178 177 214 233 251 258 267 266 270 281 139 318 179 139 149 156 193 175 111 97 166 177 221 244 239 254 193
329 325 314 265 293 230 255 345 289 73 344 204 190 247 161 178 153 198 181 185 218 222 147 253 304 271 254 256 243 255 128 157 170 148 115 209 181 181 162 195 213 230 253 253 218
324 325 310 185 247 249 309 325 19 79 265 189 171 187 185 218 241 54 179 216 199 237 262 267 271 248 232 256 238 356 11 81 169 160 221 190 194 130 148 167 206 247 238 211 194
321 314 226 279 248 343 342 17 69 184 331 189 176 181 195 208 232 193 184 211 213 204 274 312 299 296 221 276 341 43 29 338 82 235 253 81 4 51 355 13 212 277 250 316 295
309 276 225 231 250 4 17 57 38 259 236 178 162 162 197 206 235 181 172 203 234 220 275 290 306 283 217 197 213 212 142 244 320 215 232 20 28 319 303 123 7 203 156 201 234
339 189 246 256 221 134 57 33 244 273 339 123 97 176 243 236 207 199 193 207 238 202 202 251 299 322 183 177 162 209 235 169 110 53 131 94 1 266 337 350 345 192 81 193 232
342 255 254 195 146 109 77 275 267 191 110 78 37 349 256 246 193 201 183 266 217 191 202 215 314 347 320 162 187 228 170 270 70 169 238 69 62 312 14 33 340 342 326 339 295
47 355 294 132 111 71 287 267 17 32 92 90 82 301 299 289 208 128 176 28 150 138 94 57 80 311 29 8 266 236 263 74 105 120 157 118 140 228 175 158 173 251 283 320 330
11 347 169 125 54 277 273 229 102 76 36 81 62 34 323 30 38 77 85 113 33 45 53 2 127 309 296 251 264 104 346 161 234 160 107 109 138 198 210 196 212 244 254 280 308
5 307 105 88 329 323 331 341 55 61 59 22 303 236 354 19 73 120 211 54 61 60 57 343 26 8 354 18 358 38 17 20 119 102 124 120 152 175 212 209 223 238 262 289 284
20 8 5 189 297 312 19 34 47 34 37 69 26 37 51 29 31 34 6 356 65 51 106 73 73 68 345 271 301 3 349 50 112 142 158 167 158 155 176 165 200 223 219 16 19
23 29 34 330 344 339 66 60 53 39 30 31 24 40 47 24 31 16 8 6 29 16 53 48 35 17 3 14 321 344 328 39 68 147 146 167 159 159 141 92 109 120 105 68 40
32 7 347 308 309 36 28 37 57 47 57 23 36 36 58 56 34 329 349 13 16 339 22 23 11 10 7 353 13 77 49 80 85 112 106 139 149 207 182 182 129 119 126 120 97
342 329 33 312 350 26 12 44 47 35 19 17 9 5 16 348 313 295 266 259 256 297 333 48 24 360 9 338 3 27 358 59 120 138 145 162 189 166 170 160 153 115 111 124 118